Location: Antioch
(38.0049°N, 121.8058°W)
Time: 02:26:41
(UTC+00:00)

IGS 5A - Pass Details

Date: 11 February 2026
Orbit: 551 x 554 km, 97.4° (Epoch: 8 January)

Event Time Altitude Azimuth Distance (km) Brightness Sun altitude
Rises 13:57:14 0° 9° (N) 2,735 6.9 -13.2°
Reaches altitude 10° 13:59:23 10° 8° (N) 1,836 6.0 -12.8°
Maximum altitude 14:03:21 76° 284° (WNW) 573 3.2 -12.0°
Drops below altitude 10° 14:07:17 10° 198° (SSW) 1,823 5.9 -11.3°
Sets 14:09:24 0° 197° (SSW) 2,712 6.8 -10.8°
